FENGYUN 3D

Last updated on Sun Apr 12 2026 00:02:27 GMT+0000 (Coordinated Universal Time)

1 43010U 17072A 26101.47785480 .00000376 00000+0 19977-3 0 9999 2 43010 99.0082 74.7144 0000632 202.7851 157.3296 14.19726097435529
UTC large
Height (km)
Speed (km/s)
/
Latitude / Longitude
Inclination (degrees)
Orbital Period (minutes)
Azimuth
Elevation
Range (km)
Doppler Factor

Next 0 passes for location: London (51.5072 / 0.1276)

Sorry there are no passes over London.
FENGYUN 3D